Flag for Norway Weather past 2 weeks in Kleppe, Norway

Now
46 °F

Overcast.


Feels Like: 46 °F
Forecast: 42 / 46 °F
Wind: 2 mph from Southwest

Location: Stavanger / Sola

Current Time: Mar 6, 2015 at 12:32:24 PM

Latest Report: Mar 6, 2015 at 11:00 AM


Visibility: 9 mi

Pressure: 30.23 "Hg

Humidity: 91%

Dew point: 43 °F

Location of KleppeLocation

Historic Weather in Kleppe — Graph

°F

Kleppe temperature yesterday

Maximum temperature yesterday: 44 °F (at 3:00 PM)
Minimum temperature yesterday: 36 °F (at 12:00 AM)
Average temperature yesterday: 42 °F

Past Weeks' High & Low Weather Summary

 TemperatureHumidityPressure
High46 °F (Feb 25, 3:00 PM)97% (Mar 5, 11:00 PM)30.33 "Hg (Mar 5, 11:00 PM)
Low33 °F (Mar 3, 5:00 AM)52% (Feb 22, 11:00 AM)28.70 "Hg (Feb 23, 5:00 AM)
Average40 °F86%29.49 "Hg
* Reported Feb 19 11:00 AM — Mar 6 11:00 AM, Kleppe, Weather by CustomWeather, © 2015

Note: Actual official high and low records may vary slightly from our data, if they occured in-between our weather recording intervals... More about our weather records

Advertising

Kleppe weather history for previous 24 hours

 ConditionsComfort  
Time TempWeatherWind HumidityBarometerVisibility
11:00 AM
Fri, Mar 6
46 °FOvercast.2 mph91%30.23 "Hg9 mi
10:00 AM45 °FScattered clouds.2 mph94%30.23 "Hg9 mi
9:00 AM43 °FSunny.3 mph94%30.22 "Hg6 mi
8:00 AM42 °FSunny.2 mph94%30.21 "Hg6 mi
7:00 AM43 °FPassing clouds.6 mph95%30.22 "Hg6 mi
6:00 AM42 °FQuite cool.3 mph96%30.22 "Hg4 mi
5:00 AM43 °FPassing clouds.3 mph96%30.21 "Hg4 mi
3:00 AM43 °FPassing clouds.3 mph96%30.20 "Hg4 mi
2:00 AM44 °FLight rain. Passing clouds.5 mph97%30.19 "Hg3 mi
1:00 AM44 °FLow clouds.5 mph97%30.17 "Hg4 mi
12:00 AM44 °FRain showers. Low clouds.6 mph96%30.17 "Hg1 mi
11:00 PM
Thu, Mar 5
43 °FLight rain. Overcast.6 mph97%30.16 "Hg2 mi
9:00 PM43 °FDrizzle. Low clouds.6 mph94%30.20 "Hg4 mi
7:00 PM44 °FOvercast.6 mph93%30.21 "Hg6 mi
6:00 PM44 °FLow clouds.7 mph94%30.21 "Hg5 mi
5:00 PM44 °FLow clouds.6 mph94%30.22 "Hg5 mi
4:00 PM44 °FLight rain. Cloudy.6 mph94%30.24 "Hg5 mi
3:00 PM44 °FDrizzle. Low clouds.7 mph92%30.26 "Hg3 mi
2:00 PM44 °FLow clouds.7 mph93%30.27 "Hg6 mi
1:00 PM43 °FDrizzle. Low clouds.8 mph92%30.28 "Hg9 mi
12:00 PM42 °FDrizzle. Overcast.7 mph90%30.29 "Hg6 mi
Weather by CustomWeather, © 2015

See weather overviewHow to use our weather pages